Location: Unspecified
(17.6330°N, 0.0000°E)
Time: 17:55:27
(UTC+00:00)

A-11 Canister half - Pass Details

Date: 23 June 2019
Orbit: 1515 x 1685 km, 47.2° (Epoch: 15 July)

Event Time Altitude Azimuth Distance (km) Brightness Sun altitude
Rises 19:30:46 0° 298° (WNW) 4,679 13.7 -12.1°
Reaches altitude 10° 19:34:25 10° 287° (WNW) 3,681 12.4 -12.8°
Maximum altitude 19:41:45 27° 233° (SW) 2,582 10.4 -14.3°
Drops below altitude 10° 19:49:06 10° 180° (S) 3,672 10.7 -15.8°
Enters shadow 19:51:54 - 170° (S) 4,415 11.0 -16.4°
Sets 19:52:47 0° 168° (SSE) 4,665 - -16.6°
